Location: Pryor
(45.4297°N, 108.5332°W)
Time: 21:02:51
(UTC+00:00)

X-37B - Visible Passes

Search period start: 24 January 2022 00:00
Search period end: 03 February 2022 00:00
Orbit: 334 x 337 km, 45.0° (Epoch: 11 January)

Date Brightness Start Highest point End Pass type
(mag) Time Alt. Az. Time Alt. Az. Time Alt. Az.
26 Jan 3.2 02:07:21 10° S 02:07:37 11° S 02:07:37 11° S visible
27 Jan 3.2 02:26:49 10° SW 02:27:25 14° SW 02:27:25 14° SW visible
28 Jan 2.5 01:12:48 10° S 01:14:37 16° SSE 01:15:56 12° ESE visible
28 Jan 3.7 02:46:55 10° WSW 02:47:10 12° WSW 02:47:10 12° WSW visible
29 Jan 1.5 01:32:15 10° SW 01:34:49 31° SSE 01:35:38 26° ESE visible
30 Jan 0.5 01:52:21 10° WSW 01:55:08 56° SSE 01:55:16 55° SSE visible
31 Jan 1.2 02:12:43 10° W 02:14:53 48° WSW 02:14:53 48° WSW visible
01 Feb 0.7 00:57:47 10° WSW 01:00:34 56° SSE 01:03:15 11° E visible
01 Feb 2.7 02:33:09 10° W 02:34:29 24° W 02:34:29 24° W visible
02 Feb 0.3 01:18:08 10° W 01:20:59 80° S 01:22:51 19° E visible
02 Feb 3.7 02:53:36 10° W 02:54:05 14° W 02:54:05 14° W visible
